Regional Weather Roundup
Issued by NWS Northern Indiana

Home | Current Version | Previous Version | Graphics & Text | Print | Product List | Glossary On
Versions: 1 2 3 4 5 6 7 8 9 10 11 12 13 14 15 16 17 18 19 20 21 22 23 24 25 26 27 28 29 30 31 32 33 34 35 36 37 38 39 40 41 42 43 44 45 46 47 48 49 50
000
ASUS43 KIWX 241010
RWRIWX

KIWX WEATHER ROUNDUP
NATIONAL WEATHER SERVICE NORTHERN INDIANA
600 AM EDT WED MAY 24 2017

NOTE: "FAIR" INDICATES FEW OR NO CLOUDS BELOW 12,000 FEET WITH NO
SIGNIFICANT WEATHER AND/OR OBSTRUCTIONS TO VISIBILITY.

* THESE STATIONS ARE NOT UNDER NWS QUALITY CONTROL. THEY ALSO MAY NOT
  REPORT WEATHER SUCH AS PRECIPITATION OR FOG.

INZ001>027-241100-
NORTHERN INDIANA

CITY           SKY/WX    TMP DP  RH WIND       PRES   REMARKS
GARY*          LGT RAIN  55  54  94 N8        29.60F
VALPARAISO     CLOUDY    57  55  93 N6        29.57F FOG
MICHIGAN CITY* CLOUDY    54  54 100 NW5       29.58F
LAPORTE*       CLOUDY    55  54  95 NW3       29.57F
KNOX*          CLOUDY    54  52  94 NW7       29.55F
SOUTH BEND     CLOUDY    55  53  93 NE6       29.57F
GOSHEN         CLOUDY    56  51  84 NE5       29.55F
MONTICELLO*    CLOUDY    56  55  95 NW7       29.55S
LOGANSPORT*    CLOUDY    54  52  94 W5        29.56R
ROCHESTER*     MOCLDY    59  52  77 CALM      29.55R
WARSAW*        CLOUDY    55  50  82 E8        29.54F
ANGOLA*        CLOUDY    57  52  82 NE6       29.57F
FORT WAYNE     MOCLDY    58  51  78 E7        29.56S
HUNTINGTON*    CLOUDY    57  52  85 E5        29.55R
PERU/GRISSOM   CLOUDY    56  55  95 SW7       29.54R
MARION*        CLOUDY    57  54  88 SE8       29.55R HAZE

$$
INZ028>050-241100-
CENTRAL INDIANA

CITY           SKY/WX    TMP DP  RH WIND       PRES   REMARKS
LAFAYETTE      CLOUDY    57  55  93 N7        29.54F FOG
KOKOMO*        MOCLDY    56  54  93 SW3       29.55R
MUNCIE*        CLOUDY    64  50  60 CALM      29.54S
INDIANAPOLIS   CLOUDY    58  55  90 NW6       29.54F

$$
MIZ043>046-050>051-056>058-064>065-071>073-077>080-241100-
SOUTHWEST LOWER MICHIGAN

CITY           SKY/WX    TMP DP  RH WIND       PRES   REMARKS
BATTLE CREEK   CLOUDY    56  53  90 NE8       29.60F
BENTON HARBOR  CLOUDY    57  52  83 E7        29.58S
COLDWATER*     PTCLDY    55  53  95 E5        29.58F
HILLSDALE*     MOCLDY    54  50  87 NE5       29.59S
HOLLAND        CLOUDY    57  53  86 VRB5      29.61F
GRAND RAPIDS   LGT RAIN  56  54  93 E9        29.61F
KALAMAZOO      PTCLDY    56  51  84 NE5       29.59F
STURGIS*       CLOUDY    54  53  96 NE6       29.57S
THREE RIVERS*  FAIR      55  52  90 E3        29.59S

$$
OHZ001>008-015>018-024>025-241100-
NORTHWEST OHIO

CITY           SKY/WX    TMP DP  RH WIND       PRES   REMARKS
WAUSEON*       FAIR      55  52  88 NE8       29.58F
DEFIANCE       PTCLDY    55  48  77 NE6       29.57F
FINDLAY        MOCLDY    59  53  80 E7        29.56F
TOLEDO EXPRESS CLOUDY    57  52  83 NE3       29.58S
TOLEDO METCALF CLOUDY    58  55  90 NE5       29.59F
LIMA           CLOUDY    59  57  93 SE7       29.57F

$$
AND FOR LAKE MICHIGAN COASTAL AND OPEN LAKE BUOY OBSERVATIONS

STATION/POSITION TEMP    WIND        PRES    VSBY  WAVE
                 AIR SEA DIR/SP/G                  HT/PER
                 (F)     (DEG/KT/KT) (MB)    (MI)  (FT/S)
CALUMET HARBOR    53     340/ 10/ 13 1002.0F
MICHIGAN CITY     53     320/ 13/ 15   N/A
BURNS HARBOR      51     360/ 14/ 17 1002.4F
SOUTH LAKE BUOY   47 45  360/ 10/ 12 1003.6          0
4 MI NW BRIDGMAN  57 57   90/  8/ 10 1001.6          1/ 3
MICHIGAN CITY     50 53  340/ 14/ 17   N/A           1/ 3

$$
&&




USA.gov is the U.S. government's official web portal to all federal, state and local government web resources and services.